Weather History for Lumberton, NC

Change the Weather History Date:

Saturday, June 22, 2013

  Actual Average Record
Temperature  
Mean Temperature 78 °F 79 °F  
Max Temperature 84 °F 90 °F 94 °F (2007)
Min Temperature 71 °F 69 °F 57 °F (2003)
Degree Days  
Heating Degree Days 0 0  
Month to date heating degree days 0 0  
Since 1 June heating degree days 0 0  
Since 1 July heating degree days 2800 2761  
Cooling Degree Days 13 14  
Month to date cooling degree days 275 267  
Year to date cooling degree days 467 517  
Since 1 June cooling degree days 275 267  
Growing Degree Days 26 (Base 50)    
Moisture  
Dew Point 71 °F    
Average Humidity 79    
Maximum Humidity 93    
Minimum Humidity 65    
Precipitation  
Precipitation 0.18 in 0.13 in 1.05 in (2000)
Month to date precipitation 8.34 3.31  
Year to date precipitation 22.83 18.38  
Sea Level Pressure  
Sea Level Pressure 30.14 in    
Wind  
Wind Speed 5 mph (NNE)    
Max Wind Speed 13 mph    
Max Gust Speed 17 mph    
Visibility 8 miles    
Events Rain    
T = Trace of Precipitation, MM = Missing Value Source: NWS Daily Summary

Daily Weather History Graph

Daily Weather History Graph

Search for Another Location

Airport:

Trip Planner

Search our weather history database for the weather conditions in past years. The results will help you decide how hot, cold, wet, or windy it might be!

Date:

Astronomy

Jun. 22, 2013 Rise Set
Actual Time 6:04 AM EDT 8:32 PM EDT
Civil Twilight 5:34 AM EDT 9:02 PM EDT
Nautical Twilight 4:58 AM EDT 9:38 PM EDT
Astronomical Twilight 4:17 AM EDT 10:18 PM EDT
Moon 7:48 PM EDT (6/22) 5:12 AM EDT (6/22)
Length of Visible Light 15h 27m
Length of Day
14h 28m
Waxing Gibbous, 99% of the Moon is Illuminated
Jun 22
Waxing Gibbous
Jun 23
Full
Jun 30
Last Quarter
Jul 8
New
Jul 15
First Quarter

Hourly Weather History & Observations

Time (EDT) Temp. Heat Index Dew Point Humidity Pressure Visibility Wind Dir Wind Speed Gust Speed Precip Events Conditions
12:54 AM 75.0 °F - 70.0 °F 84% 30.16 in 10.0 mi ENE 8.1 mph - N/A   Overcast
1:54 AM 73.9 °F - 70.0 °F 87% 30.14 in 10.0 mi ENE 8.1 mph - N/A   Overcast
2:09 AM 73.4 °F - 69.8 °F 88% 30.14 in 10.0 mi ENE 6.9 mph - N/A   Mostly Cloudy
2:23 AM 73.4 °F - 69.8 °F 88% 30.14 in 10.0 mi ENE 6.9 mph - N/A   Mostly Cloudy
2:33 AM 73.4 °F - 69.8 °F 88% 30.14 in 10.0 mi ENE 6.9 mph - N/A   Scattered Clouds
2:54 AM 72.0 °F - 70.0 °F 93% 30.13 in 10.0 mi ENE 3.5 mph - N/A   Partly Cloudy
3:54 AM 71.1 °F - 69.1 °F 93% 30.12 in 10.0 mi NE 4.6 mph - N/A   Clear
4:54 AM 71.1 °F - 69.1 °F 93% 30.12 in 10.0 mi NNE 5.8 mph - N/A   Clear
5:21 AM 71.6 °F - 69.8 °F 94% 30.13 in 10.0 mi NE 8.1 mph - N/A   Scattered Clouds
5:33 AM 71.6 °F - 69.8 °F 94% 30.13 in 10.0 mi NNE 6.9 mph - N/A   Mostly Cloudy
5:54 AM 72.0 °F - 70.0 °F 93% 30.13 in 10.0 mi NE 6.9 mph - N/A   Overcast
6:54 AM 73.0 °F - 70.0 °F 90% 30.14 in 10.0 mi NNE 8.1 mph - N/A   Overcast
7:30 AM 73.4 °F - 69.8 °F 88% 30.15 in 10.0 mi NE 8.1 mph - N/A   Overcast
7:49 AM 73.4 °F - 69.8 °F 88% 30.15 in 10.0 mi NNE 10.4 mph - N/A   Overcast
7:54 AM 73.9 °F - 70.0 °F 87% 30.14 in 10.0 mi NNE 10.4 mph - N/A   Overcast
8:29 AM 73.4 °F - 69.8 °F 88% 30.15 in 8.0 mi North 9.2 mph - N/A   Overcast
8:54 AM 73.9 °F - 70.0 °F 87% 30.15 in 10.0 mi NNE 10.4 mph - N/A   Overcast
9:03 AM 75.2 °F - 69.8 °F 83% 30.16 in 10.0 mi NNE 10.4 mph - N/A   Overcast
9:18 AM 73.4 °F - 69.8 °F 88% 30.16 in 10.0 mi NNE 12.7 mph - N/A   Overcast
9:54 AM 73.9 °F - 70.0 °F 87% 30.15 in 3.0 mi NNE 9.2 mph - N/A   Overcast
10:04 AM 73.4 °F - 71.6 °F 94% 30.15 in 1.8 mi North 8.1 mph - 0.00 in Rain Light Rain
10:07 AM 73.4 °F - 71.6 °F 94% 30.15 in 1.5 mi North 8.1 mph - 0.00 in Rain Light Rain
10:15 AM 73.4 °F - 71.6 °F 94% 30.15 in 1.2 mi North 8.1 mph - 0.00 in Rain Light Rain
10:20 AM 73.4 °F - 71.6 °F 94% 30.15 in 2.0 mi NNE 8.1 mph - 0.00 in   Overcast
10:25 AM 73.4 °F - 71.6 °F 94% 30.14 in 3.0 mi NNE 5.8 mph - 0.00 in   Overcast
10:32 AM 75.2 °F - 71.6 °F 89% 30.14 in 3.0 mi NNE 8.1 mph - 0.00 in   Overcast
10:52 AM 75.2 °F - 71.6 °F 89% 30.14 in 2.0 mi NNE 8.1 mph - 0.00 in   Overcast
10:54 AM 75.0 °F - 72.0 °F 90% 30.14 in 2.0 mi NNE 8.1 mph - 0.00 in   Overcast
10:57 AM 75.2 °F - 71.6 °F 89% 30.14 in 3.0 mi NNE 10.4 mph - N/A   Overcast
11:04 AM 75.2 °F - 71.6 °F 89% 30.15 in 9.0 mi East 6.9 mph - N/A   Overcast
11:54 AM 78.1 °F - 70.0 °F 76% 30.14 in 10.0 mi NNE 8.1 mph - N/A   Mostly Cloudy
12:42 PM 77.0 °F - 71.6 °F 83% 30.16 in 4.0 mi East 5.8 mph - 0.00 in Rain Light Rain
12:54 PM 77.0 °F - 72.0 °F 84% 30.15 in 10.0 mi ENE 3.5 mph - 0.00 in   Overcast
1:54 PM 81.0 °F 84.9 °F 71.1 °F 72% 30.15 in 10.0 mi Calm Calm - 0.01 in   Overcast
2:44 PM 80.6 °F 83.9 °F 69.8 °F 70% 30.14 in 10.0 mi WNW 10.4 mph - N/A   Mostly Cloudy
2:54 PM 79.0 °F - 72.0 °F 79% 30.14 in 10.0 mi WSW 8.1 mph - N/A   Mostly Cloudy
3:00 PM 78.8 °F - 71.6 °F 78% 30.14 in 2.5 mi WSW 8.1 mph - 0.02 in Rain Light Rain
3:03 PM 77.0 °F - 71.6 °F 83% 30.14 in 1.5 mi West 6.9 mph - 0.03 in Rain Heavy Rain
3:09 PM 78.8 °F - 73.4 °F 83% 30.14 in 2.5 mi West 6.9 mph - 0.03 in Rain Light Rain
3:16 PM 78.8 °F - 71.6 °F 78% 30.13 in 10.0 mi West 8.1 mph - 0.03 in   Mostly Cloudy
3:54 PM 80.1 °F 83.6 °F 71.1 °F 74% 30.12 in 10.0 mi NW 8.1 mph - 0.03 in   Scattered Clouds
4:54 PM 82.9 °F 87.0 °F 70.0 °F 65% 30.11 in 10.0 mi Variable 3.5 mph - N/A   Mostly Cloudy
5:49 PM 82.4 °F 86.3 °F 69.8 °F 66% 30.11 in 10.0 mi Calm Calm - N/A   Mostly Cloudy
5:54 PM 81.0 °F 84.4 °F 70.0 °F 69% 30.11 in 10.0 mi Calm Calm - N/A   Mostly Cloudy
6:15 PM 82.4 °F 86.3 °F 69.8 °F 66% 30.11 in 10.0 mi Variable 3.5 mph - N/A   Scattered Clouds
6:54 PM 82.9 °F 87.0 °F 70.0 °F 65% 30.11 in 10.0 mi NNE 4.6 mph - N/A   Clear
7:54 PM 81.0 °F 84.4 °F 70.0 °F 69% 30.10 in 10.0 mi NE 5.8 mph - N/A   Clear
8:54 PM 78.1 °F - 71.1 °F 79% 30.12 in 10.0 mi Calm Calm - N/A   Partly Cloudy
9:06 PM 77.0 °F - 71.6 °F 83% 30.13 in 10.0 mi SSE 8.1 mph - N/A   Mostly Cloudy
9:54 PM 75.0 °F - 71.1 °F 87% 30.14 in 10.0 mi Calm Calm - N/A   Mostly Cloudy
10:19 PM 75.2 °F - 71.6 °F 89% 30.14 in 1.8 mi Calm Calm - 0.08 in Rain Rain
10:21 PM 73.4 °F - 71.6 °F 94% 30.14 in 1.0 mi Calm Calm - 0.12 in Rain Heavy Rain
10:29 PM 73.4 °F - 71.6 °F 94% 30.15 in 1.8 mi SSW 3.5 mph - 0.13 in Rain Light Rain
10:36 PM 73.4 °F - 71.6 °F 94% 30.15 in 10.0 mi SSW 3.5 mph - 0.13 in   Overcast
10:54 PM 73.9 °F - 72.0 °F 93% 30.14 in 10.0 mi SSW 4.6 mph - 0.13 in   Mostly Cloudy
11:54 PM 73.9 °F - 72.0 °F 93% 30.16 in 10.0 mi Calm Calm - 0.01 in   Mostly Cloudy